Regional Weather Roundup
Issued by NWS

Home | Current Version | Previous Version | Graphics & Text | Print | Product List | Glossary On
Versions: 1 2 3 4 5 6 7 8 9 10 11 12 13 14 15 16 17 18 19 20 21 22 23 24 25 26 27 28 29 30 31 32 33 34 35 36 37 38 39 40 41 42 43 44 45 46 47 48 49 50
000
ASUS45 KBOI 021510
RWRID

IDAHO REGIONAL WEATHER ROUNDUP
NATIONAL WEATHER SERVICE BOISE ID
900 AM MDT WED SEP 02 2015

NOTE: "FAIR" INDICATES FEW OR NO CLOUDS BELOW 12000 FEET
WITH NO SIGNIFICANT WEATHER AND/OR OBSTRUCTIONS TO VISIBILITY

IDZ012-014-021600-
SOUTHWEST IDAHO


CITY           SKY/WX    TMP DP  RH WIND       PRES   REMARKS
BOISE          CLOUDY    68  39  34 SE6       29.88R
CALDWELL       CLOUDY    59  39  47 CALM      29.88R
MOUNTAIN HOME  MOSUNNY   71  38  30 CALM      29.88S
$$

IDZ016-017-021600-
SOUTHCENTRAL IDAHO


CITY           SKY/WX    TMP DP  RH WIND       PRES   REMARKS
BURLEY         SUNNY     64  47  53 SW7       29.95R
JEROME         MOSUNNY   67  39  35 S6        29.95R
TWIN FALLS     SUNNY     76  26  15 SW9       29.96R
$$

IDZ019>023-021600-
SOUTHEAST IDAHO


CITY           SKY/WX    TMP DP  RH WIND       PRES   REMARKS
IDAHO FALLS    MOSUNNY   67  44  43 SW7       29.97S
POCATELLO      SUNNY     77  34  21 S10       29.97R
REXBURG        SUNNY     69  41  36 S9        29.97R
$$

IDZ006-010-011-018-031-032-021600-
CENTRAL IDAHO MOUNTAINS


CITY           SKY/WX    TMP DP  RH WIND       PRES   REMARKS
MCCALL         CLOUDY    51  41  68 CALM      29.93R
HAILEY         MOSUNNY   52  37  58 W9        30.01S
STANLEY          N/A     48  30  49 CALM      30.03R
SALMON         MOSUNNY   54  34  47 CALM      29.84F
CHALLIS        MOSUNNY   55  34  45 CALM      29.92S
$$

IDZ002-004-006-007-026-021600-
NORTHERN IDAHO


CITY           SKY/WX    TMP DP  RH WIND       PRES   REMARKS
LEWISTON       CLOUDY    66  43  43 CALM      29.82R
LOWELL           N/A     56  50  80 CALM      29.87R
COEUR D`ALENE  CLOUDY    61  46  59 S15       29.80S
MULLAN PASS    CLOUDY    46  40  79 VRB7      29.90R
$$



USA.gov is the U.S. government's official web portal to all federal, state and local government web resources and services.